Dubuque, IA

12:26 PM CDT on October 20, 2019 (GMT -0500)
Dubuque Regional

Weather History for KDBQ - August, 2019

Change the Weather History Date:

Saturday, August 17, 2019

  Actual Average Record
Temperature  
Mean Temperature 68 °F 70 °F  
Max Temperature 79 °F 80 °F 99 °F (1988)
Min Temperature 57 °F 61 °F 47 °F (1879)
Degree Days  
Heating Degree Days 0 1  
Month to date heating degree days 0 2  
Since 1 June heating degree days 29 50  
Since 1 July heating degree days 0 10  
Cooling Degree Days 3 6  
Month to date cooling degree days 90 107  
Year to date cooling degree days 543 507  
Since 1 June cooling degree days 517 470  
Growing Degree Days 18 (Base 50)    
Moisture  
Dew Point 65 °F    
Average Humidity 82    
Maximum Humidity 100    
Minimum Humidity 64    
Precipitation  
Precipitation 0.13 in 0.15 in 3.45 in (1990)
Month to date precipitation 3.23 2.46  
Year to date precipitation 29.34 24.04  
Snow  
Snow 0.00 in 0.00 in - ()
Month to date snowfall 0.0 0.0  
Since 1 June snowfall 0.0 0.0  
Since 1 July snowfall 0.0 0.0  
Snow Depth 0.00 in    
Sea Level Pressure  
Sea Level Pressure 29.87 in    
Wind  
Wind Speed 6 mph (SE)    
Max Wind Speed 14 mph    
Max Gust Speed 18 mph    
Visibility 10 miles    
Events Rain    
T = Trace of Precipitation, MM = Missing Value Source: NWS Daily Summary

Daily Weather History Graph

Daily Weather History Graph

Search for Another Location

Airport or City:

Astronomy

Aug. 17, 2019 Rise Set
Actual Time 6:11 AM CDT 8:01 PM CDT
Civil Twilight 5:41 AM CDT 8:31 PM CDT
Nautical Twilight 5:04 AM CDT 9:07 PM CDT
Astronomical Twilight 4:25 AM CDT 9:47 PM CDT
Moon 9:27 PM CDT (8/17) 8:01 AM CDT (8/17)
Length of Visible Light 14h 49m
Length of Day
13h 49m
Waning Gibbous, 96% of the Moon is Illuminated
Aug 17
Waning Gibbous
Aug 23
Last Quarter
Aug 30
New
Sep 5
First Quarter
Sep 13
Full

Hourly Weather History & Observations

Time (CDT) Temp. Dew Point Humidity Pressure Visibility Wind Dir Wind Speed Gust Speed Precip Events Conditions
12:53 AM 64.0 °F 61.0 °F 90% 29.90 in 10.0 mi Calm Calm - N/A   Clear
1:53 AM 62.1 °F 60.1 °F 93% 29.90 in 10.0 mi SSW 3.5 mph - N/A   Clear
2:53 AM 61.0 °F 59.0 °F 93% 29.86 in 10.0 mi NNE 3.5 mph - N/A   Clear
3:53 AM 57.0 °F 55.9 °F 96% 29.89 in 10.0 mi SSW 5.8 mph - N/A   Clear
4:53 AM 57.9 °F 57.0 °F 97% 29.90 in 10.0 mi Calm Calm - N/A   Clear
5:53 AM 59.0 °F 57.0 °F 93% 29.91 in 10.0 mi Calm Calm - N/A   Clear
6:53 AM 59.0 °F 57.9 °F 96% 29.93 in 10.0 mi Calm Calm - N/A   Clear
7:53 AM 64.9 °F 62.1 °F 90% 29.92 in 10.0 mi NNE 4.6 mph - N/A   Clear
8:53 AM 66.0 °F 63.0 °F 90% 29.92 in 10.0 mi NE 3.5 mph - N/A   Partly Cloudy
9:53 AM 73.0 °F 64.0 °F 73% 29.88 in 10.0 mi East 10.4 mph - N/A   Partly Cloudy
10:53 AM 73.9 °F 64.0 °F 71% 29.90 in 10.0 mi SE 8.1 mph - N/A   Overcast
11:53 AM 73.9 °F 66.0 °F 76% 29.88 in 10.0 mi East 5.8 mph - 0.00 in   Partly Cloudy
12:53 PM 75.0 °F 64.9 °F 71% 29.87 in 10.0 mi East 9.2 mph - N/A   Clear
1:53 PM 77.0 °F 64.9 °F 66% 29.87 in 10.0 mi SE 9.2 mph - N/A   Clear
2:53 PM 75.9 °F 68.0 °F 76% 29.88 in 10.0 mi SSE 8.1 mph - N/A   Mostly Cloudy
3:53 PM 78.1 °F 68.0 °F 71% 29.86 in 10.0 mi South 8.1 mph - N/A   Partly Cloudy
4:53 PM 78.1 °F 69.1 °F 74% 29.85 in 10.0 mi South 9.2 mph - N/A   Partly Cloudy
5:53 PM 78.1 °F 69.1 °F 74% 29.84 in 10.0 mi SSE 5.8 mph - N/A   Clear
6:38 PM 73.9 °F 70.0 °F 87% 29.85 in 1.5 mi Variable 5.8 mph 17.3 mph 0.00 in Rain Heavy Rain
6:48 PM 73.4 °F 69.8 °F 88% 29.85 in 5.0 mi SSE 8.1 mph - 0.12 in Rain Light Rain
6:53 PM 73.9 °F 70.0 °F 87% 29.84 in 10.0 mi SSE 6.9 mph - 0.12 in   Mostly Cloudy
7:53 PM 73.0 °F 70.0 °F 90% 29.83 in 10.0 mi SE 5.8 mph - N/A   Clear
8:53 PM 71.1 °F 68.0 °F 90% 29.81 in 10.0 mi SE 6.9 mph - N/A   Clear
9:53 PM 69.1 °F 66.9 °F 93% 29.83 in 10.0 mi South 5.8 mph - N/A   Clear
10:53 PM 68.0 °F 66.0 °F 93% 29.83 in 10.0 mi South 6.9 mph - N/A   Clear
11:53 PM 68.0 °F 66.0 °F 93% 29.83 in 10.0 mi South 8.1 mph - N/A   Clear